| time (UTC) | temp F | wind direction | speed MPH | gust MPH | rain 1hr in | rain 24hr in | rain mn in | humidity % | barometer mb |
| 20260507051029 | 49 | 50 | 4.0 | 7.0 | 0.00 | 0.00 | 0.00 | 78 | 1014.6 |
| 20260507050030 | 48 | 40 | 6.0 | 11.0 | 0.00 | 0.00 | 0.00 | 78 | 1014.5 |
| 20260507045029 | 48 | 35 | 7.0 | 11.0 | 0.00 | 0.00 | 0.00 | 79 | 1014.4 |
| 20260507044030 | 48 | 34 | 7.0 | 11.0 | 0.00 | 0.00 | 0.00 | 79 | 1014.4 |
| 20260507043029 | 48 | 37 | 6.0 | 11.0 | 0.00 | 0.00 | 0.00 | 79 | 1014.4 |
| 20260507042030 | 48 | 26 | 6.0 | 12.0 | 0.00 | 0.00 | 0.00 | 80 | 1014.3 |
| 20260507041030 | 48 | 16 | 6.0 | 10.0 | 0.00 | 0.00 | 0.00 | 81 | 1014.1 |
| 20260507040029 | 48 | 22 | 5.0 | 10.0 | 0.00 | 0.00 | 0.00 | 81 | 1014.0 |
| 20260507035030 | 47 | 18 | 6.0 | 11.0 | 0.00 | 0.00 | 0.00 | 82 | 1014.1 |
| 20260507034029 | 47 | 29 | 6.0 | 9.0 | 0.00 | 0.00 | 0.00 | 82 | 1014.0 |
| 20260507033030 | 47 | 44 | 5.0 | 9.0 | 0.00 | 0.00 | 0.00 | 82 | 1014.0 |
| 20260507032030 | 47 | 53 | 4.0 | 5.0 | 0.00 | 0.00 | 0.00 | 81 | 1013.9 |
| 20260507031029 | 47 | 57 | 4.0 | 6.0 | 0.00 | 0.00 | 0.00 | 82 | 1013.9 |
| 20260507030030 | 47 | 73 | 3.0 | 4.0 | 0.00 | 0.00 | 0.00 | 82 | 1013.9 |
| 20260507025029 | 47 | 57 | 2.0 | 4.0 | 0.00 | 0.00 | 0.00 | 82 | 1013.9 |
| 20260507024030 | 48 | 55 | 3.0 | 8.0 | 0.00 | 0.00 | 0.00 | 82 | 1013.8 |
| 20260507023030 | 48 | 44 | 4.0 | 8.0 | 0.00 | 0.00 | 0.00 | 82 | 1013.8 |
| 20260507022029 | 48 | 40 | 4.0 | 7.0 | 0.00 | 0.00 | 0.00 | 81 | 1013.7 |
| 20260507021030 | 48 | 20 | 5.0 | 10.0 | 0.00 | 0.00 | 0.00 | 81 | 1013.7 |
| 20260507020030 | 48 | 33 | 5.0 | 10.0 | 0.00 | 0.00 | 0.00 | 81 | 1013.6 |
| 20260507015030 | 49 | 16 | 5.0 | 10.0 | 0.00 | 0.00 | 0.00 | 80 | 1013.6 |
| 20260507014030 | 49 | 20 | 6.0 | 11.0 | 0.00 | 0.00 | 0.00 | 80 | 1013.5 |
| 20260507013030 | 48 | 20 | 6.0 | 10.0 | 0.00 | 0.00 | 0.00 | 79 | 1013.5 |
| 20260507012029 | 48 | 34 | 4.0 | 9.0 | 0.00 | 0.00 | 0.00 | 78 | 1013.5 |
| 20260507011030 | 48 | 48 | 5.0 | 9.0 | 0.00 | 0.00 | 0.00 | 78 | 1013.4 |
| 20260507010030 | 48 | 33 | 6.0 | 11.0 | 0.00 | 0.00 | 0.00 | 78 | 1013.4 |
| 20260507005029 | 48 | 31 | 5.0 | 9.0 | 0.00 | 0.00 | 0.00 | 79 | 1013.5 |
| 20260507004030 | 48 | 40 | 6.0 | 9.0 | 0.00 | 0.00 | 0.00 | 79 | 1013.4 |
| 20260507003029 | 48 | 37 | 6.0 | 10.0 | 0.00 | 0.00 | 0.00 | 79 | 1013.4 |
| 20260507002030 | 48 | 47 | 6.0 | 11.0 | 0.00 | 0.00 | 0.00 | 79 | 1013.4 |
| 20260507001029 | 48 | 48 | 5.0 | 10.0 | 0.00 | 0.00 | 0.00 | 80 | 1013.3 |
| 20260507000030 | 48 | 54 | 6.0 | 13.0 | 0.00 | 0.00 | 0.00 | 80 | 1013.3 |
| 20260506235030 | 48 | 48 | 7.0 | 13.0 | 0.00 | 0.00 | 0.00 | 80 | 1013.4 |
| 20260506234030 | 48 | 45 | 7.0 | 12.0 | 0.00 | 0.00 | 0.00 | 80 | 1013.4 |
| 20260506233030 | 48 | 40 | 6.0 | 11.0 | 0.00 | 0.00 | 0.00 | 80 | 1013.4 |
| 20260506232030 | 48 | 42 | 4.0 | 6.0 | 0.00 | 0.00 | 0.00 | 80 | 1013.3 |
| 20260506231029 | 48 | 48 | 3.0 | 5.0 | 0.00 | 0.00 | 0.00 | 80 | 1013.3 |
| 20260506230030 | 48 | 56 | 3.0 | 5.0 | 0.00 | 0.00 | 0.00 | 80 | 1013.3 |
| 20260506225029 | 48 | 61 | 3.0 | 8.0 | 0.00 | 0.00 | 0.00 | 79 | 1013.3 |
| 20260506224030 | 48 | 60 | 4.0 | 8.0 | 0.00 | 0.00 | 0.00 | 79 | 1013.2 |
| 20260506223029 | 48 | 63 | 4.0 | 8.0 | 0.00 | 0.00 | 0.00 | 78 | 1013.1 |
| 20260506222030 | 49 | 69 | 4.0 | 8.0 | 0.00 | 0.00 | 0.00 | 78 | 1013.1 |
| 20260506221030 | 49 | 65 | 4.0 | 9.0 | 0.00 | 0.00 | 0.00 | 77 | 1013.1 |
| 20260506220029 | 49 | 60 | 5.0 | 10.0 | 0.00 | 0.00 | 0.00 | 77 | 1013.0 |
| 20260506215030 | 49 | 54 | 6.0 | 13.0 | 0.00 | 0.00 | 0.00 | 77 | 1012.9 |
| 20260506214029 | 50 | 57 | 7.0 | 12.0 | 0.00 | 0.00 | 0.00 | 76 | 1012.9 |
| 20260506213030 | 50 | 44 | 7.0 | 11.0 | 0.00 | 0.00 | 0.00 | 75 | 1012.9 |
| 20260506212030 | 51 | 50 | 8.0 | 14.0 | 0.00 | 0.00 | 0.00 | 74 | 1012.8 |
| 20260506211029 | 51 | 41 | 8.0 | 13.0 | 0.00 | 0.00 | 0.00 | 73 | 1012.7 |
| 20260506210029 | 51 | 45 | 8.0 | 14.0 | 0.00 | 0.00 | 0.00 | 72 | 1012.6 |
| 20260506205030 | 51 | 44 | 8.0 | 13.0 | 0.00 | 0.00 | 0.00 | 70 | 1012.5 |
| 20260506204029 | 52 | 41 | 9.0 | 16.0 | 0.00 | 0.00 | 0.00 | 69 | 1012.5 |
| 20260506203029 | 52 | 47 | 8.0 | 13.0 | 0.00 | 0.00 | 0.00 | 69 | 1012.4 |
| 20260506202030 | 52 | 42 | 9.0 | 14.0 | 0.00 | 0.00 | 0.00 | 68 | 1012.3 |
| 20260506201030 | 53 | 51 | 9.0 | 14.0 | 0.00 | 0.00 | 0.00 | 68 | 1012.3 |
| 20260506200030 | 53 | 39 | 8.0 | 14.0 | 0.00 | 0.00 | 0.00 | 67 | 1012.2 |
| 20260506195030 | 53 | 46 | 7.0 | 13.0 | 0.00 | 0.00 | 0.00 | 66 | 1012.0 |
| 20260506194030 | 53 | 50 | 8.0 | 13.0 | 0.00 | 0.00 | 0.00 | 65 | 1012.0 |
| 20260506193029 | 53 | 48 | 9.0 | 15.0 | 0.00 | 0.00 | 0.00 | 65 | 1011.8 |
| 20260506192029 | 53 | 35 | 9.0 | 15.0 | 0.00 | 0.00 | 0.00 | 64 | 1011.6 |
| 20260506191030 | 54 | 35 | 9.0 | 19.0 | 0.00 | 0.00 | 0.00 | 64 | 1011.4 |
| 20260506190029 | 54 | 40 | 11.0 | 18.0 | 0.00 | 0.00 | 0.00 | 64 | 1011.3 |
| 20260506185030 | 54 | 38 | 10.0 | 19.0 | 0.00 | 0.00 | 0.00 | 64 | 1011.2 |
| 20260506184030 | 54 | 43 | 9.0 | 16.0 | 0.00 | 0.00 | 0.00 | 64 | 1011.1 |
| 20260506183030 | 54 | 42 | 11.0 | 20.0 | 0.00 | 0.00 | 0.00 | 65 | 1011.0 |
| 20260506182029 | 54 | 37 | 10.0 | 17.0 | 0.00 | 0.00 | 0.00 | 65 | 1010.9 |
| 20260506181030 | 55 | 50 | 9.0 | 15.0 | 0.00 | 0.00 | 0.00 | 66 | 1010.8 |
| 20260506180030 | 55 | 36 | 8.0 | 15.0 | 0.00 | 0.00 | 0.00 | 67 | 1010.7 |
| 20260506175029 | 55 | 20 | 11.0 | 19.0 | 0.00 | 0.00 | 0.00 | 67 | 1010.5 |
| 20260506174030 | 56 | 23 | 9.0 | 18.0 | 0.00 | 0.00 | 0.00 | 65 | 1010.4 |
| 20260506173030 | 56 | 36 | 6.0 | 14.0 | 0.00 | 0.00 | 0.00 | 65 | 1010.3 |
| 20260506172030 | 56 | 40 | 3.0 | 8.0 | 0.00 | 0.00 | 0.00 | 59 | 1010.3 |
| 20260506171030 | 55 | 74 | 6.0 | 12.0 | 0.00 | 0.00 | 0.00 | 58 | 1010.2 |
| 20260506170030 | 55 | 78 | 7.0 | 13.0 | 0.00 | 0.00 | 0.00 | 57 | 1010.2 |
| 20260506165029 | 56 | 80 | 8.0 | 14.0 | 0.00 | 0.00 | 0.00 | 56 | 1010.2 |
| 20260506164030 | 56 | 82 | 5.0 | 13.0 | 0.00 | 0.00 | 0.00 | 55 | 1010.1 |
| 20260506163030 | 55 | 87 | 5.0 | 14.0 | 0.00 | 0.00 | 0.00 | 55 | 1010.1 |
| 20260506162030 | 55 | 74 | 7.0 | 17.0 | 0.00 | 0.00 | 0.00 | 55 | 1009.9 |
| 20260506161030 | 55 | 75 | 9.0 | 19.0 | 0.00 | 0.00 | 0.00 | 56 | 1010.0 |
| 20260506160029 | 55 | 58 | 10.0 | 19.0 | 0.00 | 0.00 | 0.00 | 56 | 1010.0 |
| 20260506155029 | 56 | 77 | 9.0 | 15.0 | 0.00 | 0.00 | 0.00 | 55 | 1010.0 |
| 20260506154029 | 56 | 79 | 11.0 | 21.0 | 0.00 | 0.00 | 0.00 | 54 | 1010.0 |
| 20260506153029 | 56 | 82 | 9.0 | 18.0 | 0.00 | 0.00 | 0.00 | 54 | 1010.0 |
| 20260506152030 | 56 | 69 | 9.0 | 16.0 | 0.00 | 0.00 | 0.00 | 53 | 1010.0 |
| 20260506151030 | 56 | 45 | 10.0 | 15.0 | 0.00 | 0.00 | 0.00 | 53 | 1010.0 |
| 20260506150030 | 57 | 30 | 9.0 | 18.0 | 0.00 | 0.00 | 0.00 | 52 | 1009.9 |
| 20260506145029 | 57 | 45 | 9.0 | 16.0 | 0.00 | 0.00 | 0.00 | 51 | 1009.9 |
| 20260506144029 | 57 | 54 | 8.0 | 15.0 | 0.00 | 0.00 | 0.00 | 50 | 1009.9 |
| 20260506143029 | 57 | 53 | 10.0 | 17.0 | 0.00 | 0.00 | 0.00 | 48 | 1009.9 |
| 20260506142029 | 57 | 71 | 10.0 | 18.0 | 0.00 | 0.00 | 0.00 | 46 | 1009.8 |
| 20260506141030 | 57 | 73 | 8.0 | 17.0 | 0.00 | 0.00 | 0.00 | 49 | 1009.8 |
| 20260506140030 | 57 | 75 | 8.0 | 16.0 | 0.00 | 0.00 | 0.00 | 48 | 1009.8 |
| 20260506135030 | 57 | 67 | 10.0 | 19.0 | 0.00 | 0.00 | 0.00 | 49 | 1009.7 |
| 20260506134030 | 57 | 88 | 10.0 | 20.0 | 0.00 | 0.00 | 0.00 | 46 | 1009.6 |
| 20260506133029 | 57 | 87 | 10.0 | 21.0 | 0.00 | 0.00 | 0.00 | 47 | 1009.7 |
| 20260506132029 | 57 | 92 | 9.0 | 23.0 | 0.00 | 0.00 | 0.00 | 44 | 1009.7 |
| 20260506131029 | 57 | 77 | 13.0 | 23.0 | 0.00 | 0.00 | 0.00 | 44 | 1009.6 |
| 20260506130030 | 57 | 77 | 12.0 | 27.0 | 0.00 | 0.00 | 0.00 | 45 | 1009.6 |
| 20260506125029 | 57 | 70 | 11.0 | 24.0 | 0.00 | 0.00 | 0.00 | 46 | 1009.5 |
| 20260506124029 | 57 | 81 | 12.0 | 24.0 | 0.00 | 0.00 | 0.00 | 44 | 1009.5 |
| 20260506123030 | 57 | 71 | 12.0 | 21.0 | 0.00 | 0.00 | 0.00 | 45 | 1009.5 |
| 20260506122030 | 57 | 72 | 12.0 | 21.0 | 0.00 | 0.00 | 0.00 | 47 | 1009.4 |
| 20260506121030 | 57 | 66 | 10.0 | 19.0 | 0.00 | 0.00 | 0.00 | 46 | 1009.4 |
| 20260506120030 | 57 | 80 | 5.0 | 18.0 | 0.00 | 0.00 | 0.00 | 47 | 1009.5 |
| 20260506115030 | 58 | 77 | 10.0 | 24.0 | 0.00 | 0.00 | 0.00 | 45 | 1009.4 |
| 20260506114030 | 58 | 96 | 7.0 | 25.0 | 0.00 | 0.00 | 0.00 | 49 | 1009.4 |
| 20260506113030 | 57 | 72 | 9.0 | 23.0 | 0.00 | 0.00 | 0.00 | 51 | 1009.3 |
| 20260506112030 | 57 | 98 | 5.0 | 19.0 | 0.00 | 0.00 | 0.00 | 50 | 1009.4 |
| 20260506111029 | 56 | 77 | 9.0 | 19.0 | 0.00 | 0.00 | 0.00 | 49 | 1009.3 |
| 20260506110030 | 57 | 73 | 9.0 | 20.0 | 0.00 | 0.00 | 0.00 | 49 | 1009.2 |
| 20260506105030 | 57 | 77 | 11.0 | 23.0 | 0.00 | 0.00 | 0.00 | 47 | 1009.2 |
| 20260506104030 | 56 | 82 | 8.0 | 22.0 | 0.00 | 0.00 | 0.00 | 51 | 1009.3 |
| 20260506103030 | 56 | 65 | 8.0 | 17.0 | 0.00 | 0.00 | 0.00 | 56 | 1009.3 |
| 20260506102030 | 56 | 67 | 8.0 | 19.0 | 0.00 | 0.00 | 0.00 | 56 | 1009.3 |
| 20260506101029 | 56 | 55 | 9.0 | 15.0 | 0.00 | 0.00 | 0.00 | 56 | 1009.2 |
| 20260506100029 | 55 | 67 | 9.0 | 19.0 | 0.00 | 0.00 | 0.00 | 57 | 1009.2 |
| 20260506095029 | 55 | 51 | 11.0 | 21.0 | 0.00 | 0.00 | 0.00 | 58 | 1009.1 |
| 20260506094030 | 55 | 66 | 10.0 | 21.0 | 0.00 | 0.00 | 0.00 | 61 | 1009.1 |
| 20260506093030 | 54 | 59 | 11.0 | 21.0 | 0.00 | 0.00 | 0.00 | 61 | 1009.1 |
| 20260506092029 | 54 | 40 | 9.0 | 17.0 | 0.00 | 0.00 | 0.00 | 71 | 1009.0 |
| 20260506091030 | 54 | 33 | 9.0 | 15.0 | 0.00 | 0.00 | 0.00 | 73 | 1009.0 |
| 20260506090029 | 54 | 33 | 9.0 | 15.0 | 0.00 | 0.00 | 0.00 | 73 | 1009.0 |
| 20260506085030 | 54 | 19 | 9.0 | 17.0 | 0.00 | 0.00 | 0.00 | 75 | 1008.9 |
| 20260506084030 | 54 | 47 | 8.0 | 15.0 | 0.00 | 0.00 | 0.00 | 76 | 1008.9 |
| 20260506083030 | 53 | 60 | 8.0 | 17.0 | 0.00 | 0.00 | 0.00 | 76 | 1008.9 |
| 20260506082030 | 53 | 47 | 7.0 | 14.0 | 0.00 | 0.00 | 0.00 | 77 | 1008.9 |
| 20260506081029 | 53 | 38 | 9.0 | 14.0 | 0.00 | 0.00 | 0.00 | 77 | 1008.9 |
| 20260506073029 | 53 | 61 | 11.0 | 19.0 | 0.00 | 0.00 | 0.00 | 75 | 1008.8 |
| 20260506072029 | 53 | 52 | 11.0 | 17.0 | 0.00 | 0.00 | 0.00 | 74 | 1008.8 |
| 20260506071030 | 53 | 62 | 11.0 | 17.0 | 0.00 | 0.00 | 0.00 | 74 | 1008.6 |
| 20260506062029 | 51 | 67 | 6.0 | 13.0 | 0.00 | 0.00 | 0.00 | 80 | 1008.3 |
| 20260506061029 | 51 | 60 | 8.0 | 16.0 | 0.00 | 0.00 | 0.00 | 82 | 1008.2 |